[[{"header":{"parameterUnit":"m.s-1","parameterCategory":1,"la1":30.2991,"la2":30.254,"lo1":-89.0895,"lo2":-89.0444,"dx":0.0017,"dy":0.0017,"nx":28,"ny":28,"refTime":"2022-12-13T15:00:00:Z","depth":0,"parameterNumber":2,"parameterNumberName":"U-component_of_WINDS"},"data":[0,0,0,0,0,0,0,0,0,0,0,0,0,0,0,0,0,0,0,0,0,0,0,0,0,0,0,0,0,0,0,0,0,0,0,0,0,0,0,0,0,0,0,0,0,0,0,0,0,0,0,0,0,0,0,0,0,0,6.7206,6.7211,0,6.7613,6.7618,6.7622,6.7596,6.7591,6.7585,6.7579,6.7979,6.7994,6.801,0,0,0,0,0,0,0,0,0,0,0,0,0,6.639,6.6405,6.7206,6.7211,6.7216,6.7612,6.7618,6.7623,6.7598,6.759,6.7583,6.7576,6.7973,6.7992,6.8012,0,0,0,0,0,0,0,0,0,0,0,0,0,6.6765,6.641,6.7205,6.7252,6.726,6.7611,6.7618,6.7625,6.7599,6.759,6.7581,6.7573,6.7967,6.7991,6.8015,6.8341,0,0,6.8089,6.8099,0,0,0,0,0,0,0,0,6.6744,6.6795,6.724,6.7249,6.7259,6.7545,6.7477,6.7865,6.7601,6.747,6.7579,6.7569,6.7841,6.7875,6.797,6.836,6.8377,6.8091,6.8105,6.8116,6.8123,0,0,0,0,0,0,0,6.6718,6.6777,6.7366,6.7246,6.7258,6.7246,6.729,6.755,6.7699,6.748,6.748,6.7529,6.7844,6.7947,6.7979,6.8383,6.809,6.8112,6.8126,6.8136,6.9061,6.907,0,0,0,0,0,0,6.6684,6.6756,6.7354,6.7379,6.6975,6.7268,6.7317,6.7462,6.7697,6.7724,6.7536,6.7526,6.791,6.7951,6.7993,6.8393,6.8116,6.8138,6.8152,6.9051,6.9063,6.9074,0,0,0,0,0,0,6.6666,6.6737,6.7337,6.7068,6.7143,6.7292,6.7455,6.7475,6.7578,6.7739,6.7763,6.7615,6.7904,6.7959,6.8256,6.8407,6.8149,6.8171,6.9039,6.9054,6.9068,6.9195,0,0,0,0,0,0,6.6643,6.6731,6.6862,6.7071,6.7158,6.76,6.7464,6.7489,6.7622,6.7613,6.7819,6.7845,6.7901,6.822,6.828,6.8435,6.819,6.9026,6.9046,6.9064,6.9178,6.9212,6.9242,0,0,0,0,0,6.6614,6.6877,6.6868,6.6941,6.7324,6.7609,6.7658,6.7722,6.7634,6.7764,6.7866,6.7838,6.8379,6.8251,6.8318,6.8483,6.9017,6.904,6.9062,6.9164,6.9206,6.9241,0,0,0,0,0,0,6.6676,6.6905,6.6898,6.7238,6.7405,6.7604,6.777,6.7764,6.7955,6.7938,6.8004,6.8051,6.835,6.8445,6.8298,6.8811,6.8686,6.8723,6.874,6.8781,6.8812,6.8785,6.821,0,0,0,0,0,6.673,6.6947,6.7133,6.7414,6.7499,6.762,6.7746,6.7782,6.7955,6.8024,6.8148,6.8312,6.8519,6.8654,6.8853,6.9189,6.9233,6.9335,6.9367,6.9392,6.9425,6.9609,6.9657,6.9148,6.9148,6.9147,0,0,6.6842,6.6994,6.7126,6.7431,6.7565,6.7784,6.7679,6.7915,6.8077,6.8057,6.8349,6.8445,6.8632,6.8951,6.9097,6.9039,6.9574,6.9421,6.944,6.9459,6.9638,6.9686,6.9729,6.9163,6.916,6.9158,0,0,6.7161,6.7297,6.7549,6.7685,6.7891,6.7969,6.8029,6.823,6.8295,6.8589,6.8579,6.8768,6.9123,6.9258,6.9373,6.974,6.9721,6.9801,6.997,7.0149,7.0189,7.0225,7.0358,7.0405,6.9832,6.9832,6.9832,0,6.7273,6.761,6.7676,6.7917,6.805,6.8046,6.8299,6.8425,6.8682,6.8772,6.8704,6.9151,6.9275,6.9626,6.9716,6.9808,6.9876,6.9781,7.0179,7.0216,7.025,7.0378,7.0427,6.9841,6.984,6.9839,6.9838,0,6.7739,6.7971,6.8148,6.8405,6.8556,6.88,6.89,6.9044,6.9065,6.9149,6.9446,6.9596,6.9826,6.991,6.993,7.0264,7.0222,7.0165,7.0042,7.0307,7.0428,7.0477,6.9854,6.9851,6.9848,6.9846,0,0,6.8112,6.8402,6.8466,6.8583,6.8808,6.8987,6.9227,6.9459,6.9582,6.9756,6.996,7.026,7.021,7.034,7.0373,7.053,7.0814,7.0455,7.046,7.0519,7.1191,7.1236,7.1292,7.08,7.081,7.0817,7.1176,0,6.8456,6.8894,6.896,6.9343,6.9558,6.9556,6.9765,6.9923,7.0006,7.0196,7.0284,7.0498,7.0414,7.0493,7.0647,7.0747,7.095,7.0721,7.0988,7.0997,7.0947,7.1355,7.1403,7.1735,7.1224,7.1232,7.1238,0,6.8918,6.9114,6.952,6.9718,6.981,6.9999,7.0216,7.0398,7.0574,7.0623,7.0769,7.0783,7.1028,7.089,7.1227,7.107,7.1181,7.1246,7.126,7.1291,7.1137,7.1399,7.1842,7.1893,7.1312,7.1306,7.1301,0,6.9154,6.9517,6.9808,6.9907,7.0143,7.0276,7.0379,7.0547,7.0682,7.0868,7.0955,7.1164,7.128,7.1438,7.1507,7.14,7.184,7.1708,7.1886,7.1885,7.1983,7.1976,7.2453,7.2047,7.2046,7.2045,7.2044,0,6.9534,6.9784,6.9918,7.0098,7.0375,7.0445,7.0716,7.0813,7.0963,7.1157,7.1162,7.1343,7.1421,7.1612,7.1665,7.1937,7.1987,7.2031,7.2043,7.2035,7.2029,7.2112,7.2092,7.2059,7.2056,7.2053,7.2051,0,6.9847,6.9947,7.0265,7.0463,7.0519,7.0715,7.0882,7.1053,7.1133,7.1379,7.1439,7.1564,7.179,7.1873,7.2144,7.218,7.2495,7.2486,7.2439,7.2443,7.2618,7.2602,7.3168,7.3246,7.2784,7.2789,7.2792,0,7.0086,7.028,7.05,7.0634,7.0744,7.0958,7.1097,7.117,7.1313,7.1528,7.1672,7.1898,7.2084,7.2441,7.2553,7.276,7.2757,7.2941,7.2789,7.2773,7.2764,7.2754,7.2774,7.2971,7.2976,7.298,7.2983,0,7.0501,7.0541,7.0745,7.0967,7.1134,7.1309,7.148,7.1586,7.1684,7.1843,7.2078,7.2222,7.2502,7.2725,7.2938,7.3036,7.3026,7.3029,7.3082,7.3077,7.3044,7.3068,7.2521,7.3017,7.3014,7.3011,7.3009,7.3008,7.0787,7.0959,7.1143,7.1369,7.1505,7.1665,7.1837,7.194,7.2139,7.2379,7.2406,7.2657,7.2824,7.311,7.3218,7.3411,7.3361,7.3436,7.3456,7.3475,7.349,7.301,7.3449,7.3448,7.3447,7.3447,7.3446,0,7.1205,7.1323,7.153,7.1772,7.1949,7.1928,7.2115,7.2263,7.2486,7.2646,7.283,7.3097,7.3313,7.3441,7.3656,7.3786,7.3786,7.384,7.3833,7.3856,7.3521,7.3456,7.3836,7.3836,7.3836,7.3836,7.3836,7.3836,7.1444,7.1736,7.1797,7.2154,7.2267,7.252,7.2629,7.2774,7.2903,7.3204,7.3387,7.347,7.3616,7.3842,7.4037,7.4068,7.4148,7.4207,7.4234,7.392,7.388,7.3841,7.3781,7.4223,7.4224,7.4554,7.4557,7.4559]},{"header":{"parameterUnit":"m.s-1","parameterCategory":1,"la1":30.2991,"la2":30.254,"lo1":-89.0895,"lo2":-89.0444,"dx":0.0017,"dy":0.0017,"nx":28,"ny":28,"refTime":"2022-12-13T15:00:00:Z","depth":0,"parameterNumber":3,"parameterNumberName":"V-component_of_WINDS"},"data":[0,0,0,0,0,0,0,0,0,0,0,0,0,0,0,0,0,0,0,0,0,0,0,0,0,0,0,0,0,0,0,0,0,0,0,0,0,0,0,0,0,0,0,0,0,0,0,0,0,0,0,0,0,0,0,0,0,0,-2.247,-2.2454,0,-2.0883,-2.0864,-2.0846,-2.0266,-2.0272,-2.0277,-2.0283,-1.8589,-1.8541,-1.8491,0,0,0,0,0,0,0,0,0,0,0,0,0,-2.4932,-2.4891,-2.2472,-2.2452,-2.2432,-2.0886,-2.0863,-2.0841,-2.0265,-2.0272,-2.0279,-2.0285,-1.8606,-1.8547,-1.8486,0,0,0,0,0,0,0,0,0,0,0,0,0,-2.3655,-2.4877,-2.2475,-2.196,-2.1898,-2.089,-2.0863,-2.0836,-2.0264,-2.0272,-2.028,-2.0288,-1.8626,-1.8552,-1.8478,-1.7846,0,0,-1.8248,-1.8215,0,0,0,0,0,0,0,0,-2.3728,-2.3565,-2.2055,-2.1994,-2.1923,-2.0783,-2.1109,-1.9831,-2.0262,-2.0882,-2.0283,-2.0292,-1.9308,-1.9177,-1.8858,-1.7767,-1.7694,-1.8241,-1.8195,-1.8163,-1.8142,0,0,0,0,0,0,0,-2.3817,-2.3629,-2.1841,-2.2034,-2.1952,-2.1783,-2.1611,-2.0864,-2.0065,-2.0829,-2.0783,-2.0607,-1.9272,-1.8933,-1.8814,-1.7669,-1.8243,-1.8176,-1.813,-1.81,-1.5954,-1.5942,0,0,0,0,0,0,-2.4002,-2.3708,-2.1891,-2.1793,-2.2867,-2.1733,-2.154,-2.1139,-2.0073,-1.9919,-2.0601,-2.0586,-1.9057,-1.8903,-1.8753,-1.7928,-1.8164,-1.8093,-1.805,-1.5965,-1.5951,-1.5938,0,0,0,0,0,0,-2.4057,-2.3846,-2.1955,-2.2737,-2.2484,-2.1682,-2.1235,-2.1103,-2.0763,-1.9902,-1.9749,-2.0406,-1.9058,-1.8859,-1.8075,-1.7863,-1.8059,-1.799,-1.5979,-1.5961,-1.5945,-1.6288,0,0,0,0,0,0,-2.413,-2.3869,-2.364,-2.2738,-2.2446,-2.1329,-2.1223,-2.1066,-2.0643,-2.0607,-1.9678,-1.953,-1.9049,-1.8191,-1.8001,-1.7762,-1.7931,-1.5994,-1.5971,-1.595,-1.6292,-1.6285,-1.6278,0,0,0,0,0,-2.422,-2.3789,-2.3631,-2.3415,-2.2145,-2.1319,-2.1148,-2.0623,-2.063,-2.0377,-1.982,-1.956,-1.792,-1.8116,-1.7896,-1.7633,-1.6005,-1.5978,-1.5952,-1.6295,-1.6286,-1.6278,0,0,0,0,0,0,-2.4665,-2.3662,-2.3475,-2.2745,-2.2124,-2.1224,-2.0892,-2.0632,-1.9979,-1.997,-1.9324,-1.9117,-1.8382,-1.7926,-1.8165,-1.6953,-1.6943,-1.6871,-1.7279,-1.7263,-1.7257,-1.7376,-1.7869,0,0,0,0,0,-2.4684,-2.412,-2.3262,-2.2697,-2.2398,-2.1701,-2.132,-2.097,-2.0291,-2.0019,-1.9405,-1.8738,-1.8067,-1.764,-1.6978,-1.6224,-1.6,-1.5931,-1.5926,-1.5924,-1.5866,-1.5413,-1.5367,-1.5851,-1.5851,-1.5852,0,0,-2.4704,-2.4086,-2.3766,-2.2771,-2.225,-2.1655,-2.1482,-2.0864,-2.0408,-1.9916,-1.9144,-1.867,-1.7877,-1.7105,-1.6731,-1.6701,-1.5683,-1.589,-1.5896,-1.5835,-1.5381,-1.5336,-1.5296,-1.5833,-1.5836,-1.5839,0,0,-2.444,-2.3925,-2.3393,-2.2875,-2.2093,-2.163,-2.1504,-2.0638,-2.031,-1.9529,-1.9143,-1.8578,-1.7447,-1.6895,-1.6467,-1.5984,-1.571,-1.5783,-1.5743,-1.5309,-1.5271,-1.5234,-1.5045,-1.4987,-1.573,-1.5731,-1.5731,0,-2.4559,-2.3675,-2.3146,-2.2548,-2.2111,-2.1659,-2.1099,-2.0614,-1.9647,-1.9345,-1.9332,-1.7894,-1.7329,-1.6412,-1.6295,-1.5968,-1.5781,-1.5884,-1.5325,-1.5281,-1.5237,-1.5049,-1.4982,-1.5744,-1.5743,-1.5741,-1.574,0,-2.3851,-2.324,-2.2899,-2.2,-2.1523,-2.0948,-2.0308,-1.9885,-1.9573,-1.9105,-1.8299,-1.7608,-1.6792,-1.6548,-1.623,-1.5576,-1.5581,-1.5456,-1.5429,-1.5214,-1.5025,-1.4951,-1.5763,-1.5758,-1.5754,-1.5751,0,0,-2.3823,-2.264,-2.2521,-2.2101,-2.12,-2.0704,-2.0095,-1.9318,-1.896,-1.8303,-1.7761,-1.6811,-1.6685,-1.6199,-1.5811,-1.5434,-1.5074,-1.5346,-1.5317,-1.5309,-1.4289,-1.4386,-1.4314,-1.4892,-1.4877,-1.4864,-1.4351,0,-2.3432,-2.2355,-2.1855,-2.0986,-2.0402,-1.9958,-1.9423,-1.8799,-1.8342,-1.7758,-1.724,-1.6574,-1.6467,-1.6168,-1.5775,-1.5205,-1.4859,-1.5234,-1.4356,-1.4332,-1.4564,-1.4217,-1.4317,-1.3868,-1.4276,-1.4263,-1.4254,0,-2.2833,-2.2198,-2.128,-2.0438,-2.0172,-1.9707,-1.8944,-1.8402,-1.7673,-1.7363,-1.6822,-1.6449,-1.5764,-1.5795,-1.4828,-1.5096,-1.4703,-1.4367,-1.4336,-1.4225,-1.4276,-1.4084,-1.3713,-1.3643,-1.4136,-1.4145,-1.4154,0,-2.2892,-2.1803,-2.1108,-2.0763,-1.9767,-1.9446,-1.9011,-1.8295,-1.7854,-1.7178,-1.688,-1.613,-1.5714,-1.5128,-1.4551,-1.463,-1.3633,-1.3619,-1.3336,-1.335,-1.314,-1.3159,-1.2691,-1.2909,-1.2911,-1.2912,-1.2913,0,-2.2501,-2.1952,-2.1121,-2.0694,-2.0055,-1.9475,-1.8851,-1.8379,-1.7743,-1.7195,-1.6757,-1.6246,-1.5524,-1.4913,-1.4455,-1.3714,-1.3531,-1.3243,-1.3126,-1.3277,-1.3313,-1.3004,-1.3016,-1.2893,-1.2897,-1.2901,-1.2904,0,-2.2457,-2.1883,-2.1093,-2.0218,-1.9983,-1.9551,-1.8786,-1.8338,-1.7861,-1.7171,-1.6974,-1.6212,-1.5471,-1.4842,-1.386,-1.355,-1.2778,-1.2644,-1.3033,-1.2968,-1.2716,-1.2744,-1.2023,-1.1891,-1.2216,-1.2214,-1.2212,0,-2.2244,-2.1813,-2.0895,-2.0508,-2.0086,-1.9466,-1.9017,-1.842,-1.7965,-1.7099,-1.6749,-1.5982,-1.5336,-1.4166,-1.3508,-1.2749,-1.2584,-1.2384,-1.2466,-1.2627,-1.2563,-1.2593,-1.2537,-1.2378,-1.2377,-1.2377,-1.2377,0,-2.192,-2.1655,-2.104,-2.0318,-1.98,-1.9197,-1.858,-1.828,-1.7563,-1.707,-1.6319,-1.582,-1.4822,-1.4054,-1.3225,-1.2744,-1.2429,-1.2358,-1.2249,-1.2394,-1.2631,-1.2485,-1.3008,-1.2374,-1.2375,-1.2375,-1.2375,-1.2375,-2.1771,-2.1364,-2.0654,-1.9975,-1.9452,-1.8884,-1.8419,-1.7886,-1.7257,-1.6414,-1.6092,-1.5318,-1.4574,-1.3432,-1.2951,-1.2317,-1.2271,-1.2119,-1.2077,-1.2046,-1.2063,-1.2745,-1.2164,-1.2163,-1.2162,-1.2161,-1.2161,0,-2.1414,-2.0937,-2.0321,-1.9479,-1.8939,-1.8717,-1.8017,-1.7572,-1.6905,-1.6252,-1.5629,-1.4751,-1.4003,-1.3288,-1.2496,-1.2125,-1.1959,-1.1935,-1.1949,-1.184,-1.2155,-1.2323,-1.2082,-1.2082,-1.2082,-1.2082,-1.2082,-1.2082,-2.1166,-2.046,-2.0109,-1.9127,-1.8641,-1.7899,-1.7517,-1.6979,-1.6455,-1.5506,-1.489,-1.4437,-1.3746,-1.29,-1.2194,-1.1999,-1.172,-1.1733,-1.1499,-1.1804,-1.182,-1.1835,-1.1989,-1.1681,-1.1681,-1.1233,-1.1229,-1.1226]}]]